Location: Pedholt
(56.0260°N, 10.2097°E)
Time: 23:08:57
(UTC+00:00)

A-11 Canister half - Pass Details

Date: 05 August 2021
Orbit: 1515 x 1685 km, 47.2° (Epoch: 19 September)

Event Time Altitude Azimuth Distance (km) Brightness Sun altitude
Rises 17:22:34 0° 250° (WSW) 4,802 12.7 14.2°
Reaches altitude 10° 17:25:43 10° 246° (WSW) 3,840 12.2 13.8°
Maximum altitude 17:35:05 52° 174° (S) 1,994 9.7 12.5°
Drops below altitude 10° 17:44:42 10° 103° (ESE) 3,943 10.6 11.2°
Sets 17:48:00 0° 98° (E) 4,938 11.0 10.7°
